Location: Brasstown Bald
(34.8693°N, 83.8103°W)
Time: 09:41:59
(UTC-04:00)

Amateur Radio Satellites - All Passes

Search period start: 18 September 2014 09:11
Search period end: 19 September 2014 09:11
Location: Brasstown Bald, 34.8693°N, 83.8103°W

Satellite Date Start Highest point End Downlink Frequencies (MHz)
Time Altitude Azimuth
HO-68 18 Sep 09:12:27 09:16:22 15° 92° (E) 09:20:17 435.675 MHz FM
JAS-2 18 Sep 09:23:34 09:25:42 12° 297° (WNW) 09:27:54 435.800 - 435.900 CW/SSB, 435.910 FM
ISS 18 Sep 09:45:43 09:47:32 14° 28° (NNE) 09:49:20 145.800 FM
SO-67 18 Sep 09:46:17 09:47:34 12° 291° (WNW) 09:48:50 435.3500 MHz FM
Oscar 11 18 Sep 10:11:16 10:12:52 12° 92° (E) 10:14:29 145.825 FM, Beacon 2401.500 USB
UKube-1 18 Sep 10:24:40 10:28:15 25° 97° (E) 10:31:49 145.840 MHz, 145.915 MHz
MaSat-1 18 Sep 10:47:02 10:50:21 17° 304° (NW) 10:53:39 437.345 MHz
UOSAT-12 18 Sep 10:47:36 10:52:19 80° 242° (WSW) 10:56:57 437.025 FM, 437.400 FM
HO-68 18 Sep 10:57:29 11:04:41 80° 287° (WNW) 11:11:51 435.675 MHz FM
RS-15 18 Sep 11:15:47 11:20:12 13° 15° (NNE) 11:24:39 29.354 - 29.394 USB, Beacon 29.352 USB
ISS 18 Sep 11:21:16 11:24:36 75° 224° (SW) 11:27:54 145.800 FM
FUNcube-1 18 Sep 11:30:42 11:35:06 42° 98° (E) 11:39:25 145.950 - 145.970 MHz USB
Oscar 11 18 Sep 11:45:06 11:49:17 48° 286° (WNW) 11:53:26 145.825 FM, Beacon 2401.500 USB
UKube-1 18 Sep 12:00:50 12:04:19 24° 291° (WNW) 12:07:48 145.840 MHz, 145.915 MHz
Sapphire 18 Sep 12:08:37 12:12:11 18° 105° (ESE) 12:15:47 437.095 MHz 1200 baud AX-25 AFSK
PCSat 18 Sep 12:34:16 12:39:08 36° 109° (ESE) 12:44:03 145.825 MHz
HO-68 18 Sep 12:48:13 12:51:15 13° 304° (NW) 12:54:16 435.675 MHz FM
FUNcube-1 18 Sep 13:08:14 13:11:05 16° 293° (WNW) 13:13:55 145.950 - 145.970 MHz USB
RS-15 18 Sep 13:27:05 13:37:12 38° 47° (NE) 13:47:37 29.354 - 29.394 USB, Beacon 29.352 USB
Uribyol 2 18 Sep 13:34:45 13:36:17 11° 62° (ENE) 13:37:49 436.500 FM
Oscar 19 18 Sep 13:46:43 13:51:24 35° 70° (ENE) 13:56:06 437.125 CW, 437.150 USB
JAS-1B 18 Sep 13:47:14 13:54:27 30° 67° (ENE) 14:00:44 435.800 - 435.900 CW/SSB
Sapphire 18 Sep 13:49:55 13:55:09 50° 300° (WNW) 14:00:25 437.095 MHz 1200 baud AX-25 AFSK
AO-27 18 Sep 14:02:13 14:06:02 21° 67° (ENE) 14:09:52 436.795 MHz FM
PCSat 18 Sep 14:18:00 14:22:34 27° 305° (NW) 14:27:10 145.825 MHz
Oscar 16 18 Sep 14:24:41 14:29:52 89° 76° (ENE) 14:35:06 437.025 USB, Beacon 2401.1428
Oscar 10/S400 18 Sep 14:37:55 14:57:51 25° 151° (SSE) 15:12:34 145.825 - 145.975 CW/USB, Beacon 145.810 USB
Gurwin Techsat 1B 18 Sep 14:46:34 14:50:54 26° 68° (ENE) 14:55:15 435.225 FM
AO-Echo 18 Sep 14:49:09 14:53:55 71° 75° (ENE) 14:58:36 ?
ITAMSAT 1 18 Sep 15:05:19 15:10:29 89° 75° (ENE) 15:15:41 435.822 SSB
Uribyol 2 18 Sep 15:09:54 15:15:02 77° 257° (WSW) 15:20:14 436.500 FM
TMSAT-1 18 Sep 15:23:44 15:28:42 44° 72° (ENE) 15:33:41 436.925 FM
Oscar 19 18 Sep 15:26:42 15:30:46 23° 265° (W) 15:34:51 437.125 CW, 437.150 USB
JAS-1B 18 Sep 15:35:55 15:44:42 54° 259° (WSW) 15:52:10 435.800 - 435.900 CW/SSB
AO-7 18 Sep 15:37:08 15:43:26 25° 58° (ENE) 15:49:43 29.400 - 29.500 MHz
RS-15 18 Sep 15:39:08 15:50:02 61° 248° (WSW) 16:01:26 29.354 - 29.394 USB, Beacon 29.352 USB
AO-27 18 Sep 15:40:26 15:45:14 39° 261° (W) 15:50:05 436.795 MHz FM
Uosat F 18 Sep 16:00:06 16:02:59 16° 65° (ENE) 16:05:53 435.120 FM
Gurwin Techsat 1B 18 Sep 16:25:58 16:30:41 33° 263° (W) 16:35:26 435.225 FM
TMSAT-1 18 Sep 17:05:03 17:08:46 19° 266° (W) 17:12:29 436.925 FM
AO-7 18 Sep 17:27:14 17:35:29 68° 255° (WSW) 17:43:46 29.400 - 29.500 MHz
Uosat F 18 Sep 17:36:27 17:41:18 52° 259° (W) 17:46:11 435.120 FM
JAS-2 18 Sep 17:46:19 17:50:25 23° 68° (ENE) 17:54:26 435.800 - 435.900 CW/SSB, 435.910 FM
Saudisat 1A 18 Sep 17:53:49 17:58:06 56° 116° (ESE) 18:02:25 436.775 MHz
Hamsat 18 Sep 17:56:27 17:59:48 22° 70° (ENE) 18:03:09 145.90 MHz
KITSAT 1 18 Sep 18:28:22 18:30:04 11° 99° (E) 18:31:45 435.175 FM
OPAL 18 Sep 18:36:45 18:41:55 76° 287° (WNW) 18:46:59 ?
MaSat-1 18 Sep 19:05:29 19:09:06 47° 63° (ENE) 19:12:11 437.345 MHz
STRAND 1 18 Sep 19:17:12 19:20:16 16° 93° (E) 19:23:20 ?
JAS-2 18 Sep 19:30:32 19:35:22 33° 262° (W) 19:40:03 435.800 - 435.900 CW/SSB, 435.910 FM
Hamsat 18 Sep 19:31:53 19:35:34 27° 264° (W) 19:39:17 145.90 MHz
Saudisat 1A 18 Sep 19:35:31 19:38:00 15° 312° (NW) 19:40:31 436.775 MHz
SO-67 18 Sep 20:13:46 20:17:10 58° 260° (W) 20:20:35 435.3500 MHz FM
KITSAT 1 18 Sep 20:16:04 20:24:06 75° 114° (ESE) 20:32:11 435.175 FM
STRAND 1 18 Sep 20:54:44 20:59:41 50° 287° (WNW) 21:04:38 ?
UKube-1 18 Sep 21:18:11 21:20:38 15° 66° (ENE) 21:23:06 145.840 MHz, 145.915 MHz
HO-68 18 Sep 21:22:03 21:28:57 56° 70° (ENE) 21:35:53 435.675 MHz FM
PCSat 18 Sep 21:26:23 21:29:42 16° 50° (NE) 21:33:00 145.825 MHz
KITSAT 1 18 Sep 22:13:57 22:20:15 24° 314° (NW) 22:26:35 435.175 FM
FUNcube-1 18 Sep 22:24:27 22:27:51 23° 69° (ENE) 22:31:20 145.950 - 145.970 MHz USB
Oscar 11 18 Sep 22:36:19 22:40:40 85° 77° (ENE) 22:45:04 145.825 FM, Beacon 2401.500 USB
Sapphire 18 Sep 22:41:03 22:46:27 63° 62° (ENE) 22:51:48 437.095 MHz 1200 baud AX-25 AFSK
UKube-1 18 Sep 22:52:23 22:56:27 40° 261° (W) 23:00:33 145.840 MHz, 145.915 MHz
PCSat 18 Sep 23:08:13 23:13:36 68° 247° (WSW) 23:18:57 145.825 MHz
HO-68 18 Sep 23:11:27 23:16:55 24° 265° (W) 23:22:26 435.675 MHz FM
SO-50 18 Sep 23:12:33 23:16:59 76° 118° (ESE) 23:21:32 436.795 FM
FUNcube-1 19 Sep 00:00:23 00:04:04 27° 264° (W) 00:07:52 145.950 - 145.970 MHz USB
Sapphire 19 Sep 00:26:29 00:29:15 14° 257° (WSW) 00:32:01 437.095 MHz 1200 baud AX-25 AFSK
UOSAT-12 19 Sep 00:55:19 00:59:52 69° 117° (ESE) 01:04:32 437.025 FM, 437.400 FM
SO-50 19 Sep 00:56:19 00:58:06 12° 315° (NW) 00:59:54 436.795 FM
AO-40 19 Sep 01:52:42 02:59:06 16° 239° (WSW) 04:43:29 Beacon 2401.320
Oscar 19 19 Sep 02:02:51 02:06:00 16° 93° (E) 02:09:08 437.125 CW, 437.150 USB
Saudisat 1A 19 Sep 02:24:25 02:27:34 19° 50° (NE) 02:30:42 436.775 MHz
ISS 19 Sep 02:25:39 02:27:57 18° 128° (SE) 02:30:16 145.800 FM
UOSAT-12 19 Sep 02:38:06 02:40:30 14° 314° (NW) 02:42:56 437.025 FM, 437.400 FM
Oscar 16 19 Sep 02:40:07 02:45:00 41° 99° (E) 02:49:50 437.025 USB, Beacon 2401.1428
PANSAT 19 Sep 02:41:45 02:44:42 21° 166° (SSE) 02:47:39 not established
AO-Echo 19 Sep 02:59:45 03:03:59 29° 97° (E) 03:08:18 ?
Gurwin Techsat 1B 19 Sep 03:07:28 03:09:54 13° 92° (E) 03:12:19 435.225 FM
ITAMSAT 1 19 Sep 03:21:48 03:26:45 42° 99° (E) 03:31:40 435.822 SSB
JAS-1B 19 Sep 03:25:43 03:31:16 51° 100° (E) 03:36:52 435.800 - 435.900 CW/SSB
Uribyol 2 19 Sep 03:26:07 03:31:12 50° 100° (E) 03:36:15 436.500 FM
Oscar 10/S400 19 Sep 03:31:38 04:47:17 32° 243° (WSW) 08:39:26 145.825 - 145.975 CW/USB, Beacon 145.810 USB
Oscar 19 19 Sep 03:40:36 03:45:35 49° 287° (WNW) 03:50:30 437.125 CW, 437.150 USB
TMSAT-1 19 Sep 03:43:33 03:47:42 23° 95° (E) 03:51:49 436.925 FM
RS-15 19 Sep 03:48:18 03:57:16 29° 104° (ESE) 04:06:02 29.354 - 29.394 USB, Beacon 29.352 USB
AO-27 19 Sep 03:56:24 04:01:38 85° 284° (WNW) 04:06:51 436.795 MHz FM
ISS 19 Sep 04:01:22 04:04:27 35° 323° (NW) 04:07:34 145.800 FM
Saudisat 1A 19 Sep 04:03:09 04:07:17 40° 246° (WSW) 04:11:24 436.775 MHz
OPAL 19 Sep 04:12:16 04:15:04 15° 62° (ENE) 04:17:53 ?
KITSAT 1 19 Sep 04:14:03 04:20:01 22° 45° (NE) 04:25:57 435.175 FM
Oscar 16 19 Sep 04:20:17 04:24:01 20° 294° (WNW) 04:27:43 437.025 USB, Beacon 2401.1428
PANSAT 19 Sep 04:21:01 04:24:26 31° 179° (S) 04:27:51 not established
AO-Echo 19 Sep 04:38:39 04:42:36 26° 290° (WNW) 04:46:40 ?
Gurwin Techsat 1B 19 Sep 04:44:59 04:50:14 63° 286° (WNW) 04:55:27 435.225 FM
ITAMSAT 1 19 Sep 05:02:08 05:05:54 21° 294° (WNW) 05:09:39 435.822 SSB
Uribyol 2 19 Sep 05:06:52 05:10:14 18° 295° (WNW) 05:13:35 436.500 FM
JAS-1B 19 Sep 05:17:55 05:21:30 17° 297° (WNW) 05:25:03 435.800 - 435.900 CW/SSB
TMSAT-1 19 Sep 05:22:49 05:27:39 37° 289° (WNW) 05:32:29 436.925 FM
AO-7 19 Sep 05:32:39 05:40:41 52° 102° (ESE) 05:48:41 29.400 - 29.500 MHz
Uosat F 19 Sep 05:47:21 05:52:20 63° 102° (ESE) 05:57:19 435.120 FM
OPAL 19 Sep 05:48:16 05:53:22 62° 257° (WSW) 05:58:33 ?
RS-15 19 Sep 05:57:42 06:08:42 66° 303° (WNW) 06:19:34 29.354 - 29.394 USB, Beacon 29.352 USB
PANSAT 19 Sep 06:01:05 06:04:12 24° 192° (SSW) 06:07:19 not established
KITSAT 1 19 Sep 06:08:15 06:16:21 83° 245° (WSW) 06:24:24 435.175 FM
STRAND 1 19 Sep 06:30:18 06:33:32 17° 65° (ENE) 06:36:46 ?
JAS-2 19 Sep 06:40:42 06:46:16 34° 98° (E) 06:52:25 435.800 - 435.900 CW/SSB, 435.910 FM
Hamsat 19 Sep 07:20:17 07:24:31 68° 101° (E) 07:28:41 145.90 MHz
AO-7 19 Sep 07:26:03 07:33:03 32° 299° (WNW) 07:40:04 29.400 - 29.500 MHz
Uosat F 19 Sep 07:28:13 07:30:33 13° 296° (WNW) 07:32:53 435.120 FM
SO-67 19 Sep 07:42:34 07:43:44 11° 93° (E) 07:44:53 435.3500 MHz FM
SO-50 19 Sep 07:47:32 07:51:45 29° 53° (NE) 07:55:59 436.795 FM
KITSAT 1 19 Sep 08:07:16 08:10:30 13° 260° (W) 08:13:45 435.175 FM
STRAND 1 19 Sep 08:07:24 08:12:17 48° 260° (W) 08:17:13 ?
RS-15 19 Sep 08:16:24 08:23:38 19° 329° (NNW) 08:30:54 29.354 - 29.394 USB, Beacon 29.352 USB
JAS-2 19 Sep 08:25:47 08:31:13 35° 289° (WNW) 08:37:15 435.800 - 435.900 CW/SSB, 435.910 FM
MaSat-1 19 Sep 08:46:41 08:51:25 46° 108° (ESE) 08:56:12 437.345 MHz
HO-68 19 Sep 08:58:41 08:59:14 10° 90° (E) 08:59:46 435.675 MHz FM
